SCP
0 0 0 0 0 0 0 0 0 0 0 0 0 0 0 0 0 0 -0 -0 -0 -0 -0 -0 -0 0 -0 -0 -0 -0 -0 -0 -0 -0 -0 -0 -0 -0 -0 -0 -0 -0 -0 -0 0 0 0 0 0
0 0 0 0 0 0 0 0 0 0 0 0 0 0 0 0 0 -0 -0 -0 -0 -0 -0 -0 -0 -0 -0 -0 -0 -0 -0 -0 -0 -0 -0 -0 -0 -0 -0 -0 -0 -0 -0 0 0 0 0 0 0
0 0 0 0 0 0 0 0 0 0 0 0 0 0 0 0 0 0 0 -0 -0 -0 -0 -0 -0 -0 -0 -0 -0 -0 -0 -0 -0 -0 -0 -0 -0 -0 -0 -0 -0 -0 0 0 0 0 0 0 0
0 0 0 0 0 0 0 0 0 0 0 0 0 0 0 0 0 0 0 -0 -0 -0 -0 -0 -0 -0 -0 -0 -0 -0 -0 -0 -0 -0 -0 -0 -0 -0 -0 -0 -0 0 0 0 0 0 0 0 0
0 0 0 0 0 0 0 0 0 0 0 0 0 0 0 0 0 0 -0 -0 -0 -0 -0 -0 -0 -0 -0 -0 -0 -0 -0 0 -0 -0 -0 -0 -0 -0 -0 -0 0 0 0 0 0 0 0 0 0
0 0 0 0 0 0 0 0 0 0 0 0 0 0 0 0 0 0 0 -0 -0 -0 -0 -0 -0 -0 -0 -0 -0 -0 -0 0 -0 -0 -0 -0 0 0 0 0 0 0 0 0 0 0 0 0 0
0 0 0 0 0 0 0 0 0 0 0 0 0 0 0 0 0 0 0 0 0 -0 -0 -0 -0 -0 -0 -0 -0 -0 0 0 0 -0 -0 0 0 0 0 0 0 0 0 0 0 0 0 0 0
0 0 0 0 0 0 0 0 0 0 0 0 0 0 0 0 0 0 0 0 0 -0 -0 -0 -0 -0 -0 -0 -0 -0 0 0 0 0 0 0 0 0 0 0 0 0 0 0 0 0 0 0 0
0 0 0 0 0 0 0 0 0 0 0 0 0 0 0 0 0 0 0 0 0 0 0 0 -0 -0 -0 0 0 0 0 0 0 0 0 0 0 0 0 0 0 0 0 0 0 0 0 0 0
0 0 0 0 0 0 0 0 0 0 0 0 0 0 0 0 0 0 0 0 0 0 0 0 0 -0 -0 0 0 0 0 0 0 0 0 0 0 0 0 0 0 0 0 0 0 0 0 0 0
0 0 0 0 0 0 0 0 0 0 0 0 0 0 0 0 0 0 0 0 0 0 0 0 0 -0 0 0 0 0 0 0 0 0 0 0 0 0 0 0 0 0 0 0 0 0 0 0 0
0 0 0 0 0 0 0 0 0 0 0 0 0 0 0 0 0 0 0 0 0 0 0 0 0 0 0 0 0 0 0 0 0 0 0 0 0 0 0 0 0 0 0 0 0 0 0 0 0
0 0 0 0 0 0 0 0 0 0 0 0 0 0 0 0 0 0 0 0 0 0 0 0 0 0 0 0 0 0 0 0 0 0 0 0 0 0 0 0 0 0 0 0 0 0 0 0 0
0 0 0 0 0 0 0 0 0 0 0 0 0 0 0 0 0 0 0 0 0 0 0 0 0 0 0 0 0 0 0 0 0 0 0 0 0 0 0 0 0 0 0 0 0 0 0 0 0
0 0 0 0 0 0 0 0 0 0 0 0 0 0 0 0 0 0 0 0 0 0 0 0 0 0 0 0 0 0 0 0 0 0 0 0 0 0 0 0 0 0 0 0 0 0 0 0 0
0 0 0 0 0 0 0 0 0 0 0 0 0 0 0 0 0 0 0 0 0 0 0 0 0 0 0 0 0 0 0 0 0 0 0 0 0 0 0 0 0 0 0 0 0 0 0 0 0
0 0 0 0 0 0 0 0 0 0 0 0 0 0 0 0 0 0 0 0 0 0 0 0 0 0 0 0 0 0 0 0 0 0 0 0 0 0 0 0 0 0 0 0 0 0 0 0 0
0 0 0 0 0 0 0 0 0 0 0 0 0 0 0 0 0 0 0 0 0 0 0 0 0 0 0 0 0 0 0 0 0 0 0 0 0 0 0 0 0 0 0 0 0 0 0 0 0
0 0 0 0 0 0 0 0 0 0 0 0 0 0 0 0 0 0 0 0 0 0 0 0 0 0 0 0 0 0 0 0 0 0 0 0 0 0 0 0 0 0 0 0 0 0 0 0 0
0 0 0 0 0 0 0 0 0 0 0 0 0 0 0 0 0 0 0 0 0 0 0 0 0 0 0 0 0 0 0 0 0 0 0 0 0 0 0 0 0 0 0 0 0 0 0 0 0
0 0 0 0 0 0 0 0 0 0 0 0 0 0 0 0 0 0 0 0 0 0 0 0 0 0 0 0 0 0 0 0 0 0 0 0 0 0 0 0 0 0 0 0 0 0 0 0 0
0 0 0 0 0 0 0 0 0 0 0 0 0 0 0 0 0 0 0 0 0 0 0 0 0 0 0 0 0 0 0 0 0 0 0 0 0 0 0 0 0 0 0 0 0 0 0 0 0
0 0 0 0 0 0 0 0 0 0 0 0 0 0 0 0 0 0 0 0 0 0 0 0 0 0 0 0 0 0 0 0 0 0 0 0 0 0 0 0 0 0 0 0 0 0 0 0 0
0 0 0 0 0 0 0 0 0 0 0 0 0 0 0 0 0 0 0 0 0 0 0 0 0 0 0 0 0 0 0 0 0 0 0 0 0 0 0 0 0 0 0 0 0 0 0 0 0
0 0 0 0 0 0 0 0 0 0 0 0 0 0 0 0 0 0 0 0 0 0 0 0 0 0 0 0 0 0 0 0 0 0 0 0 0 0 0 0 0 0 0 0 0 0 0 0 0
0 0 0 0 0 0 0 0 0 0 0 0 0 0 0 0 0 0 0 0 0 0 0 0 0 0 0 0 0 0 0 0 0 0 0 0 0 0 0 0 0 0 0 0 0 0 0 0 0
0 0 0 0 0 0 0 0 0 0 0 0 0 0 0 0 0 0 0 0 0 0 0 0 0 0 0 0 0 0 0 0 0 0 0 0 0 0 0 0 0 0 0 0 0 0 0 0 0
0 0 0 0 0 0 0 0 0 0 0 0 0 0 0 0 0 0 0 0 0 0 0 0 0 0 0 0 0 0 0 0 0 0 0 0 0 0 0 0 0 0 0 0 0 0 0 0 0
0 0 0 0 0 0 0 0 0 0 0 0 0 0 0 0 0 0 0 0 0 0 0 0 0 0 0 0 0 0 0 0 0 0 0 0 0 0 0 0 0 0 0 0 0 0 0 0 0
0 0 0 0 0 0 0 0 0 0 0 0 0 0 0 0 0 0 0 0 0 0 0 0 0 0 0 0 0 0 0 0 0 0 0 0 0 0 0 0 0 0 0 0 0 0 0 0 0
Wind_Speed_500mb
20 9 9 6 4 6 7 7 2 9 7 1 6 3 11 18 8 7 23 13 21 30 26 23 16 14 9 9 6 9 11 12 14 17 21 26 29 31 33 35 36 36 38 39 40 39 39 37 37
11 14 2 5 1 7 10 4 9 6 15 20 18 13 11 11 12 20 12 23 24 27 25 23 17 14 10 2 5 15 14 13 16 18 21 26 30 32 34 36 39 39 40 38 35 31 31 29 29
16 17 7 4 1 4 8 5 5 8 7 4 9 14 8 9 12 11 19 26 28 28 24 20 16 12 8 4 10 15 14 14 18 22 25 28 33 34 37 39 41 40 36 31 29 26 29 29 29
11 9 10 2 3 2 3 4 1 9 5 3 17 17 13 11 6 13 24 28 29 25 24 23 17 11 8 8 13 11 11 15 20 23 26 29 32 35 37 39 39 35 31 28 26 27 28 30 31
20 12 8 4 1 5 4 6 4 5 6 10 2 10 10 9 24 27 31 29 24 26 25 21 17 13 8 15 14 8 11 16 20 23 27 30 33 36 38 38 35 31 27 25 27 30 30 33 30
10 8 6 7 2 5 4 8 6 2 4 9 14 14 9 22 27 33 32 28 25 26 22 18 14 12 13 18 9 9 12 16 20 25 29 32 36 38 37 34 30 28 25 26 26 27 33 34 34
10 6 7 10 2 10 5 17 1 3 6 13 5 9 13 24 27 32 30 27 27 23 17 13 12 15 16 12 8 10 12 16 20 25 30 34 36 37 35 32 27 22 24 27 29 31 33 36 39
8 7 9 3 2 2 12 11 4 9 13 8 7 9 16 28 31 32 29 25 22 17 11 9 11 14 14 9 8 10 12 16 22 27 33 35 37 37 33 26 22 22 23 24 28 32 34 38 42
7 6 8 16 16 10 17 7 9 11 20 19 15 9 23 33 32 32 26 22 18 13 9 6 3 5 5 6 6 9 13 18 24 29 32 35 34 32 27 24 22 22 21 24 28 32 35 37 42
3 5 12 8 4 4 9 5 8 5 15 24 21 29 34 30 27 27 25 19 16 10 8 6 4 2 3 4 4 9 14 19 25 30 33 35 34 30 25 23 23 20 19 23 27 31 37 44 44
8 5 18 7 2 8 3 12 11 4 15 14 7 10 23 29 29 27 24 19 13 10 8 4 3 3 1 4 7 10 13 20 25 29 33 33 29 25 23 22 20 17 18 22 25 30 38 43 40
7 14 20 13 16 12 7 9 15 26 9 7 5 9 17 23 27 27 24 21 18 13 10 7 5 2 2 5 8 12 16 20 25 29 30 28 26 24 23 20 17 17 21 23 27 30 36 41 35
9 10 10 11 19 35 27 25 16 19 13 11 11 10 12 13 16 19 21 22 21 19 16 12 8 3 1 6 9 13 16 20 24 27 26 24 24 24 22 19 16 18 22 26 29 32 35 39 36
9 16 8 4 16 11 13 8 3 12 8 12 12 12 9 8 8 11 13 21 24 24 22 18 12 6 1 6 11 12 15 19 23 24 23 24 25 24 20 21 23 17 22 27 30 33 34 37 36
13 8 3 3 2 6 19 5 6 6 2 13 16 14 10 10 7 6 9 14 23 28 26 22 17 10 2 5 9 12 14 17 19 20 21 23 25 25 27 28 28 24 22 25 27 28 29 36 37
8 2 16 5 6 7 13 14 6 0 6 10 14 14 14 14 12 11 13 17 24 27 27 23 18 10 2 5 9 10 13 15 17 18 19 22 23 26 27 29 30 28 27 26 28 31 31 34 36
3 8 18 11 9 4 5 13 9 5 9 10 9 12 13 15 16 18 19 20 25 26 24 20 15 9 3 4 7 8 11 13 14 16 17 20 22 24 25 25 28 29 32 37 33 29 31 34 33
17 12 13 20 22 17 19 17 12 10 15 15 8 12 12 13 19 21 19 21 20 19 19 17 15 9 5 3 4 6 8 11 13 13 18 22 22 22 23 24 26 28 31 37 39 39 34 37 39
11 10 15 11 6 14 29 25 18 17 17 18 18 14 14 13 16 19 20 20 20 17 16 15 13 11 7 6 3 1 6 11 12 13 17 19 21 23 24 27 27 30 34 36 38 40 43 46 50
14 6 11 12 5 3 9 24 18 23 19 22 22 21 20 17 14 17 18 18 19 17 15 12 10 8 10 10 8 9 8 15 14 17 17 18 16 19 20 22 25 26 28 31 35 39 39 40 50
12 19 18 8 17 2 4 17 16 18 21 23 24 25 23 24 21 16 15 16 18 18 16 12 11 11 12 14 13 11 10 14 14 13 12 12 13 14 14 16 18 20 23 30 32 35 37 36 38
20 15 22 15 20 7 15 8 16 29 27 34 36 38 33 31 29 23 17 14 14 16 17 15 13 13 13 13 14 14 14 14 15 10 10 9 10 12 15 18 19 21 21 23 30 31 33 33 38
13 12 26 29 19 9 11 10 9 15 28 35 48 47 40 35 35 30 24 18 14 15 15 15 15 14 13 14 15 15 17 16 13 8 4 3 7 10 11 13 15 17 21 25 24 25 28 32 32
12 11 11 6 12 14 27 16 15 15 22 37 51 51 46 42 40 35 29 24 21 17 17 19 16 12 14 16 17 16 16 17 15 12 9 7 7 9 11 13 15 17 17 19 23 26 24 27 28
22 20 6 8 10 12 2 21 26 12 17 19 50 58 53 44 43 40 34 26 24 22 23 21 17 16 18 17 13 15 16 16 14 12 11 9 10 13 17 19 19 21 23 24 24 23 25 29 32
38 34 11 10 9 5 6 15 10 2 1 8 31 51 48 44 41 42 37 32 25 27 25 22 21 22 18 16 14 15 16 16 17 19 21 22 24 27 28 29 30 31 30 31 32 34 37 38 39
22 25 20 3 1 5 10 8 12 8 5 17 35 45 46 43 44 41 38 34 32 31 30 29 27 23 21 19 19 22 25 27 29 28 26 26 27 28 28 28 29 30 30 31 31 33 35 35 37
13 25 16 11 8 13 12 12 18 13 26 22 34 48 47 41 40 40 39 37 35 34 34 32 29 27 27 28 29 30 30 27 26 27 27 27 27 27 26 26 26 26 27 28 29 32 35 35 38
14 14 15 8 18 6 7 8 2 4 21 36 42 46 47 43 44 43 40 39 38 37 36 34 34 34 35 34 32 30 29 28 27 26 27 26 26 24 23 23 23 24 26 28 30 31 33 35 38
35 40 39 20 12 12 17 18 8 4 7 31 42 46 46 46 46 46 46 43 43 42 41 41 42 40 36 33 31 31 30 29 27 26 26 25 22 20 20 21 21 22 24 26 29 32 34 37 39
Wind_Direction_500mb
244 229 298 11 250 261 142 132 10 161 162 239 91 115 90 47 9 48 140 146 152 157 156 136 132 115 98 92 24 340 354 5 352 349 347 341 340 337 336 334 330 328 323 321 319 316 313 314 312
191 188 33 52 50 217 133 113 160 97 112 116 94 93 69 74 61 113 102 139 139 148 144 127 119 104 105 75 318 346 360 359 349 342 345 343 340 340 339 336 333 332 328 327 327 330 325 327 328
188 177 45 40 349 209 133 144 110 124 165 147 106 73 69 74 92 126 134 138 138 138 128 129 129 143 160 242 297 322 339 354 345 340 346 347 344 342 341 338 334 333 332 337 343 346 347 345 346
140 139 56 200 210 80 8 44 149 159 116 118 121 81 80 109 108 144 141 138 133 141 136 143 159 168 209 256 295 321 343 348 343 339 346 347 344 343 341 338 338 339 342 355 356 353 358 353 351
133 96 69 38 47 347 314 329 291 207 132 114 122 114 77 88 118 125 132 133 130 133 148 161 175 200 236 273 290 343 348 342 340 337 345 347 344 344 345 343 347 347 354 5 7 5 7 13 7
88 107 108 175 355 330 332 345 299 231 108 96 101 99 80 130 129 133 130 135 131 141 159 173 194 224 264 298 319 339 339 339 338 340 347 349 347 347 348 349 354 358 6 9 15 14 18 13 5
121 144 112 136 165 276 353 335 326 92 99 54 70 88 120 141 136 137 137 139 140 147 165 189 223 244 275 294 316 328 333 342 338 342 348 351 348 347 350 353 0 13 14 26 32 25 19 12 2
120 101 110 177 172 312 1 338 31 45 69 45 47 107 142 159 149 147 146 143 146 150 161 196 220 246 271 279 307 324 336 345 340 347 351 352 350 350 352 0 7 18 23 35 31 26 18 17 10
112 102 141 170 167 296 354 339 44 43 86 60 31 66 129 154 154 153 147 148 157 166 182 208 226 269 252 277 314 329 345 343 344 349 350 351 352 355 1 7 16 21 29 37 27 20 19 15 12
94 135 154 190 77 307 352 45 3 111 94 66 73 102 134 147 157 154 153 161 167 180 202 224 259 293 254 279 324 341 344 343 348 349 351 352 357 0 11 14 16 30 37 33 22 21 16 15 15
360 158 152 180 48 37 18 62 35 106 60 38 7 66 141 156 161 165 167 170 181 199 194 201 204 202 238 325 342 344 343 345 348 350 352 356 4 10 15 18 22 33 30 26 24 22 20 16 16
111 99 151 157 35 76 32 72 73 57 49 13 70 129 149 161 167 178 184 186 189 202 202 185 176 170 2 341 343 341 347 349 350 352 355 1 11 15 17 21 24 25 25 21 18 18 16 18 22
112 121 86 134 115 86 98 68 85 61 55 76 91 115 132 153 182 195 199 202 197 197 193 201 182 177 27 349 344 347 350 351 352 354 1 10 14 11 13 20 30 24 20 15 14 12 13 12 16
105 111 57 65 138 136 101 60 103 41 64 90 100 91 97 127 160 198 212 208 196 196 200 197 195 197 321 353 348 349 353 354 356 1 6 13 15 14 23 32 35 41 25 16 13 10 12 15 12
133 113 172 100 58 121 112 112 62 337 63 94 85 81 87 92 122 169 181 190 188 189 199 193 195 196 210 344 347 350 357 4 4 8 13 15 16 27 39 36 32 32 21 13 10 15 17 18 20
70 60 191 157 209 132 188 183 142 16 186 110 99 86 80 85 104 115 131 148 161 172 183 189 195 190 218 337 347 349 5 12 12 19 22 20 29 38 40 38 33 26 19 17 13 10 16 21 22
117 158 208 205 222 116 178 228 160 146 181 137 112 100 91 93 103 107 116 132 144 162 171 178 192 193 231 314 352 3 16 14 24 33 34 30 44 45 39 38 33 31 29 30 25 17 16 18 26
184 187 200 204 193 207 198 200 172 169 188 158 155 130 112 108 110 115 127 134 145 160 174 185 201 205 228 302 356 354 17 35 48 47 41 47 53 47 42 42 35 32 31 31 33 32 25 18 17
181 191 187 200 196 218 225 227 203 187 191 179 169 169 147 138 125 130 137 149 152 164 181 200 203 213 218 228 197 40 74 77 76 59 58 59 55 49 46 45 41 39 37 32 30 34 32 23 20
190 202 195 175 127 204 203 233 194 196 208 203 184 193 172 160 155 153 155 159 164 172 178 184 189 199 202 183 175 159 115 95 87 76 64 57 47 44 39 36 34 31 31 31 29 27 31 29 24
211 221 194 233 194 2 139 247 214 216 215 204 200 203 193 181 190 175 171 175 176 181 188 187 186 176 170 164 156 139 124 112 103 82 70 54 39 26 22 28 28 25 25 33 30 28 28 27 25
234 212 192 149 171 221 201 267 216 200 204 209 203 203 197 191 195 195 194 191 193 192 182 180 178 176 176 174 177 182 174 136 112 96 72 47 26 25 32 37 38 35 31 31 31 32 31 28 30
213 173 195 208 227 270 195 248 218 191 215 213 208 203 198 193 193 194 198 204 201 185 173 176 185 186 186 185 163 152 139 134 130 123 108 73 35 39 44 43 42 40 38 38 32 30 33 37 41
147 115 113 119 238 252 226 210 233 193 213 216 204 203 193 193 189 190 192 196 198 185 181 186 185 187 181 166 153 143 139 140 140 145 151 140 108 84 64 52 48 47 45 40 39 38 32 34 34
190 194 197 211 205 244 235 209 244 202 216 219 197 195 191 188 187 186 192 194 202 190 192 185 182 186 172 164 148 140 142 140 154 156 150 127 106 87 75 67 64 61 54 48 45 40 38 36 35
200 208 206 230 215 224 147 230 243 13 111 237 189 190 182 184 188 188 188 194 195 197 194 189 189 188 177 170 163 149 143 143 139 128 117 113 102 90 81 75 71 69 65 61 57 53 51 49 44
189 216 238 253 45 272 226 251 240 176 174 166 168 178 181 183 188 189 190 193 195 197 191 189 188 185 175 163 150 139 132 127 122 116 111 104 96 90 84 78 74 71 67 61 56 52 48 44 42
225 171 191 221 244 244 238 254 249 221 209 188 185 186 182 182 184 188 193 197 197 195 187 181 179 173 160 151 141 136 131 127 121 117 113 108 101 96 92 84 75 68 62 59 56 54 51 46 41
176 194 216 241 230 254 293 237 258 278 192 193 194 191 185 182 185 189 193 191 191 186 181 175 170 164 153 148 145 142 137 131 128 125 118 113 108 103 93 83 75 70 64 59 55 51 46 38 34
228 216 208 219 210 248 267 255 155 185 198 195 190 186 185 188 189 191 192 191 186 181 174 169 164 160 156 155 150 146 142 139 137 131 124 117 112 103 92 84 77 70 66 58 49 41 37 33 30
Wind_Speed_850mb
20 9 9 6 4 6 7 7 2 9 7 1 6 3 11 18 8 7 23 13 21 30 26 23 16 14 9 9 6 9 11 12 14 17 21 26 29 31 33 35 36 36 38 39 40 39 39 37 37
11 14 2 5 1 7 10 4 9 6 15 20 18 13 11 11 12 20 12 23 24 27 25 23 17 14 10 2 5 15 14 13 16 18 21 26 30 32 34 36 39 39 40 38 35 31 31 29 29
16 17 7 4 1 4 8 5 5 8 7 4 9 14 8 9 12 11 19 26 28 28 24 20 16 12 8 4 10 15 14 14 18 22 25 28 33 34 37 39 41 40 36 31 29 26 29 29 29
11 9 10 2 3 2 3 4 1 9 5 3 17 17 13 11 6 13 24 28 29 25 24 23 17 11 8 8 13 11 11 15 20 23 26 29 32 35 37 39 39 35 31 28 26 27 28 30 31
20 12 8 4 1 5 4 6 4 5 6 10 2 10 10 9 24 27 31 29 24 26 25 21 17 13 8 15 14 8 11 16 20 23 27 30 33 36 38 38 35 31 27 25 27 30 30 33 30
10 8 6 7 2 5 4 8 6 2 4 9 14 14 9 22 27 33 32 28 25 26 22 18 14 12 13 18 9 9 12 16 20 25 29 32 36 38 37 34 30 28 25 26 26 27 33 34 34
10 6 7 10 2 10 5 17 1 3 6 13 5 9 13 24 27 32 30 27 27 23 17 13 12 15 16 12 8 10 12 16 20 25 30 34 36 37 35 32 27 22 24 27 29 31 33 36 39
8 7 9 3 2 2 12 11 4 9 13 8 7 9 16 28 31 32 29 25 22 17 11 9 11 14 14 9 8 10 12 16 22 27 33 35 37 37 33 26 22 22 23 24 28 32 34 38 42
7 6 8 16 16 10 17 7 9 11 20 19 15 9 23 33 32 32 26 22 18 13 9 6 3 5 5 6 6 9 13 18 24 29 32 35 34 32 27 24 22 22 21 24 28 32 35 37 42
3 5 12 8 4 4 9 5 8 5 15 24 21 29 34 30 27 27 25 19 16 10 8 6 4 2 3 4 4 9 14 19 25 30 33 35 34 30 25 23 23 20 19 23 27 31 37 44 44
8 5 18 7 2 8 3 12 11 4 15 14 7 10 23 29 29 27 24 19 13 10 8 4 3 3 1 4 7 10 13 20 25 29 33 33 29 25 23 22 20 17 18 22 25 30 38 43 40
7 14 20 13 16 12 7 9 15 26 9 7 5 9 17 23 27 27 24 21 18 13 10 7 5 2 2 5 8 12 16 20 25 29 30 28 26 24 23 20 17 17 21 23 27 30 36 41 35
9 10 10 11 19 35 27 25 16 19 13 11 11 10 12 13 16 19 21 22 21 19 16 12 8 3 1 6 9 13 16 20 24 27 26 24 24 24 22 19 16 18 22 26 29 32 35 39 36
9 16 8 4 16 11 13 8 3 12 8 12 12 12 9 8 8 11 13 21 24 24 22 18 12 6 1 6 11 12 15 19 23 24 23 24 25 24 20 21 23 17 22 27 30 33 34 37 36
13 8 3 3 2 6 19 5 6 6 2 13 16 14 10 10 7 6 9 14 23 28 26 22 17 10 2 5 9 12 14 17 19 20 21 23 25 25 27 28 28 24 22 25 27 28 29 36 37
8 2 16 5 6 7 13 14 6 0 6 10 14 14 14 14 12 11 13 17 24 27 27 23 18 10 2 5 9 10 13 15 17 18 19 22 23 26 27 29 30 28 27 26 28 31 31 34 36
3 8 18 11 9 4 5 13 9 5 9 10 9 12 13 15 16 18 19 20 25 26 24 20 15 9 3 4 7 8 11 13 14 16 17 20 22 24 25 25 28 29 32 37 33 29 31 34 33
17 12 13 20 22 17 19 17 12 10 15 15 8 12 12 13 19 21 19 21 20 19 19 17 15 9 5 3 4 6 8 11 13 13 18 22 22 22 23 24 26 28 31 37 39 39 34 37 39
11 10 15 11 6 14 29 25 18 17 17 18 18 14 14 13 16 19 20 20 20 17 16 15 13 11 7 6 3 1 6 11 12 13 17 19 21 23 24 27 27 30 34 36 38 40 43 46 50
14 6 11 12 5 3 9 24 18 23 19 22 22 21 20 17 14 17 18 18 19 17 15 12 10 8 10 10 8 9 8 15 14 17 17 18 16 19 20 22 25 26 28 31 35 39 39 40 50
12 19 18 8 17 2 4 17 16 18 21 23 24 25 23 24 21 16 15 16 18 18 16 12 11 11 12 14 13 11 10 14 14 13 12 12 13 14 14 16 18 20 23 30 32 35 37 36 38
20 15 22 15 20 7 15 8 16 29 27 34 36 38 33 31 29 23 17 14 14 16 17 15 13 13 13 13 14 14 14 14 15 10 10 9 10 12 15 18 19 21 21 23 30 31 33 33 38
13 12 26 29 19 9 11 10 9 15 28 35 48 47 40 35 35 30 24 18 14 15 15 15 15 14 13 14 15 15 17 16 13 8 4 3 7 10 11 13 15 17 21 25 24 25 28 32 32
12 11 11 6 12 14 27 16 15 15 22 37 51 51 46 42 40 35 29 24 21 17 17 19 16 12 14 16 17 16 16 17 15 12 9 7 7 9 11 13 15 17 17 19 23 26 24 27 28
22 20 6 8 10 12 2 21 26 12 17 19 50 58 53 44 43 40 34 26 24 22 23 21 17 16 18 17 13 15 16 16 14 12 11 9 10 13 17 19 19 21 23 24 24 23 25 29 32
38 34 11 10 9 5 6 15 10 2 1 8 31 51 48 44 41 42 37 32 25 27 25 22 21 22 18 16 14 15 16 16 17 19 21 22 24 27 28 29 30 31 30 31 32 34 37 38 39
22 25 20 3 1 5 10 8 12 8 5 17 35 45 46 43 44 41 38 34 32 31 30 29 27 23 21 19 19 22 25 27 29 28 26 26 27 28 28 28 29 30 30 31 31 33 35 35 37
13 25 16 11 8 13 12 12 18 13 26 22 34 48 47 41 40 40 39 37 35 34 34 32 29 27 27 28 29 30 30 27 26 27 27 27 27 27 26 26 26 26 27 28 29 32 35 35 38
14 14 15 8 18 6 7 8 2 4 21 36 42 46 47 43 44 43 40 39 38 37 36 34 34 34 35 34 32 30 29 28 27 26 27 26 26 24 23 23 23 24 26 28 30 31 33 35 38
35 40 39 20 12 12 17 18 8 4 7 31 42 46 46 46 46 46 46 43 43 42 41 41 42 40 36 33 31 31 30 29 27 26 26 25 22 20 20 21 21 22 24 26 29 32 34 37 39
Wind_Direction_850mb
244 229 298 11 250 261 142 132 10 161 162 239 91 115 90 47 9 48 140 146 152 157 156 136 132 115 98 92 24 340 354 5 352 349 347 341 340 337 336 334 330 328 323 321 319 316 313 314 312
191 188 33 52 50 217 133 113 160 97 112 116 94 93 69 74 61 113 102 139 139 148 144 127 119 104 105 75 318 346 360 359 349 342 345 343 340 340 339 336 333 332 328 327 327 330 325 327 328
188 177 45 40 349 209 133 144 110 124 165 147 106 73 69 74 92 126 134 138 138 138 128 129 129 143 160 242 297 322 339 354 345 340 346 347 344 342 341 338 334 333 332 337 343 346 347 345 346
140 139 56 200 210 80 8 44 149 159 116 118 121 81 80 109 108 144 141 138 133 141 136 143 159 168 209 256 295 321 343 348 343 339 346 347 344 343 341 338 338 339 342 355 356 353 358 353 351
133 96 69 38 47 347 314 329 291 207 132 114 122 114 77 88 118 125 132 133 130 133 148 161 175 200 236 273 290 343 348 342 340 337 345 347 344 344 345 343 347 347 354 5 7 5 7 13 7
88 107 108 175 355 330 332 345 299 231 108 96 101 99 80 130 129 133 130 135 131 141 159 173 194 224 264 298 319 339 339 339 338 340 347 349 347 347 348 349 354 358 6 9 15 14 18 13 5
121 144 112 136 165 276 353 335 326 92 99 54 70 88 120 141 136 137 137 139 140 147 165 189 223 244 275 294 316 328 333 342 338 342 348 351 348 347 350 353 0 13 14 26 32 25 19 12 2
120 101 110 177 172 312 1 338 31 45 69 45 47 107 142 159 149 147 146 143 146 150 161 196 220 246 271 279 307 324 336 345 340 347 351 352 350 350 352 0 7 18 23 35 31 26 18 17 10
112 102 141 170 167 296 354 339 44 43 86 60 31 66 129 154 154 153 147 148 157 166 182 208 226 269 252 277 314 329 345 343 344 349 350 351 352 355 1 7 16 21 29 37 27 20 19 15 12
94 135 154 190 77 307 352 45 3 111 94 66 73 102 134 147 157 154 153 161 167 180 202 224 259 293 254 279 324 341 344 343 348 349 351 352 357 0 11 14 16 30 37 33 22 21 16 15 15
360 158 152 180 48 37 18 62 35 106 60 38 7 66 141 156 161 165 167 170 181 199 194 201 204 202 238 325 342 344 343 345 348 350 352 356 4 10 15 18 22 33 30 26 24 22 20 16 16
111 99 151 157 35 76 32 72 73 57 49 13 70 129 149 161 167 178 184 186 189 202 202 185 176 170 2 341 343 341 347 349 350 352 355 1 11 15 17 21 24 25 25 21 18 18 16 18 22
112 121 86 134 115 86 98 68 85 61 55 76 91 115 132 153 182 195 199 202 197 197 193 201 182 177 27 349 344 347 350 351 352 354 1 10 14 11 13 20 30 24 20 15 14 12 13 12 16
105 111 57 65 138 136 101 60 103 41 64 90 100 91 97 127 160 198 212 208 196 196 200 197 195 197 321 353 348 349 353 354 356 1 6 13 15 14 23 32 35 41 25 16 13 10 12 15 12
133 113 172 100 58 121 112 112 62 337 63 94 85 81 87 92 122 169 181 190 188 189 199 193 195 196 210 344 347 350 357 4 4 8 13 15 16 27 39 36 32 32 21 13 10 15 17 18 20
70 60 191 157 209 132 188 183 142 16 186 110 99 86 80 85 104 115 131 148 161 172 183 189 195 190 218 337 347 349 5 12 12 19 22 20 29 38 40 38 33 26 19 17 13 10 16 21 22
117 158 208 205 222 116 178 228 160 146 181 137 112 100 91 93 103 107 116 132 144 162 171 178 192 193 231 314 352 3 16 14 24 33 34 30 44 45 39 38 33 31 29 30 25 17 16 18 26
184 187 200 204 193 207 198 200 172 169 188 158 155 130 112 108 110 115 127 134 145 160 174 185 201 205 228 302 356 354 17 35 48 47 41 47 53 47 42 42 35 32 31 31 33 32 25 18 17
181 191 187 200 196 218 225 227 203 187 191 179 169 169 147 138 125 130 137 149 152 164 181 200 203 213 218 228 197 40 74 77 76 59 58 59 55 49 46 45 41 39 37 32 30 34 32 23 20
190 202 195 175 127 204 203 233 194 196 208 203 184 193 172 160 155 153 155 159 164 172 178 184 189 199 202 183 175 159 115 95 87 76 64 57 47 44 39 36 34 31 31 31 29 27 31 29 24
211 221 194 233 194 2 139 247 214 216 215 204 200 203 193 181 190 175 171 175 176 181 188 187 186 176 170 164 156 139 124 112 103 82 70 54 39 26 22 28 28 25 25 33 30 28 28 27 25
234 212 192 149 171 221 201 267 216 200 204 209 203 203 197 191 195 195 194 191 193 192 182 180 178 176 176 174 177 182 174 136 112 96 72 47 26 25 32 37 38 35 31 31 31 32 31 28 30
213 173 195 208 227 270 195 248 218 191 215 213 208 203 198 193 193 194 198 204 201 185 173 176 185 186 186 185 163 152 139 134 130 123 108 73 35 39 44 43 42 40 38 38 32 30 33 37 41
147 115 113 119 238 252 226 210 233 193 213 216 204 203 193 193 189 190 192 196 198 185 181 186 185 187 181 166 153 143 139 140 140 145 151 140 108 84 64 52 48 47 45 40 39 38 32 34 34
190 194 197 211 205 244 235 209 244 202 216 219 197 195 191 188 187 186 192 194 202 190 192 185 182 186 172 164 148 140 142 140 154 156 150 127 106 87 75 67 64 61 54 48 45 40 38 36 35
200 208 206 230 215 224 147 230 243 13 111 237 189 190 182 184 188 188 188 194 195 197 194 189 189 188 177 170 163 149 143 143 139 128 117 113 102 90 81 75 71 69 65 61 57 53 51 49 44
189 216 238 253 45 272 226 251 240 176 174 166 168 178 181 183 188 189 190 193 195 197 191 189 188 185 175 163 150 139 132 127 122 116 111 104 96 90 84 78 74 71 67 61 56 52 48 44 42
225 171 191 221 244 244 238 254 249 221 209 188 185 186 182 182 184 188 193 197 197 195 187 181 179 173 160 151 141 136 131 127 121 117 113 108 101 96 92 84 75 68 62 59 56 54 51 46 41
176 194 216 241 230 254 293 237 258 278 192 193 194 191 185 182 185 189 193 191 191 186 181 175 170 164 153 148 145 142 137 131 128 125 118 113 108 103 93 83 75 70 64 59 55 51 46 38 34
228 216 208 219 210 248 267 255 155 185 198 195 190 186 185 188 189 191 192 191 186 181 174 169 164 160 156 155 150 146 142 139 137 131 124 117 112 103 92 84 77 70 66 58 49 41 37 33 30